Location: Chimindia
(45.9000°N, 23.0000°E)
Time: 21:01:50
(UTC+00:00)

Daily predictions for brighter satellites

Satellite Brightness Start Highest point End
(mag) Time Altitude Azimuth Time Altitude Azimuth Time Altitude Azimuth
USA 32 4.2 18:49:01 10° SSE 18:54:06 56° E 18:59:13 10° NNE
PSLV R/B 3.9 18:51:59 10° NNE 18:56:09 72° ESE 19:00:19 10° S
SL-8 R/B 3.8 18:52:41 10° WNW 18:57:31 82° NNE 19:02:21 10° ESE
SPOT 1/Viking Rocket 3.6 18:55:12 10° SSE 19:00:20 83° ENE 19:05:32 10° NNW
NOSS 2-1 (E) 4.3 18:55:41 10° NW 19:00:24 80° SW 19:07:08 10° SSE
IRS-1A Rocket 4.5 18:55:23 10° SSE 19:01:18 90° E 19:07:12 10° NNW
Spot 2 Rocket 4.5 18:59:14 10° SE 19:03:46 33° ENE 19:08:19 10° N
Cosmos 1025 Rocket 3.6 19:03:12 10° SSW 19:07:25 61° W 19:11:43 10° N
X-37B 0.2 19:09:58 10° W 19:12:45 71° S 19:15:33 10° ESE
SPOT 5 3.5 19:10:40 10° SE 19:14:37 35° ENE 19:18:34 10° N
Cosmos 1833 Rocket 3.0 19:11:17 10° S 19:16:34 44° ESE 19:21:53 10° NE
Cosmos 1452 Rocket 3.5 19:12:35 10° S 19:17:47 66° ESE 19:23:00 10° NNE
Cosmos 1703 3.7 19:16:41 10° SSE 19:20:20 43° E 19:24:00 10° NNE
Terra 2.9 19:17:35 10° SE 19:21:41 31° ENE 19:25:52 10° N
RESURS DK-1 2.4 19:17:37 10° NNW 19:21:46 69° ENE 19:25:28 12° SE
Cosmos 1110 Rocket 4.3 19:18:53 10° S 19:23:54 48° ESE 19:28:59 10° NNE
ERS-1 Rocket 3.5 19:22:34 11° SE 19:27:05 45° ENE 19:31:52 10° N
Helios 1A Rocket 3.5 19:24:58 12° SE 19:28:26 42° ENE 19:32:19 10° N
Resurs 01 Rocket 2.7 19:25:43 10° S 19:29:56 42° W 19:34:11 10° NNW
CZ-4B R/B 1.9 19:27:22 10° N 19:30:11 50° WNW 19:32:59 10° SSW
Cosmos 2184 Rocket 4.0 19:24:50 10° N 19:31:01 69° E 19:37:07 10° SSE
Cosmos 2228 3.2 19:30:52 10° N 19:35:01 54° ENE 19:38:27 15° SSE
IRAS Rocket 4.3 19:32:10 10° NNE 19:37:47 90° W 19:43:20 10° SSW
Lacrosse 5 3.4 19:34:09 10° WNW 19:38:26 27° SW 19:42:42 10° S
Cosmos 968 Rocket 4.5 19:37:53 10° N 19:42:40 35° ENE 19:46:37 14° ESE
Cosmos 1408 4.4 19:42:17 13° ESE 19:43:19 15° E 19:45:20 10° NE
Cosmos 1271 Rocket 4.5 19:45:36 10° NNW 19:49:05 30° W 19:52:32 10° SSW
Cosmos 2360 4.3 19:43:34 10° NNW 19:49:20 78° ENE 19:53:50 17° SSE
Cosmos 1328 4.4 19:46:40 17° SSE 19:49:22 40° E 19:53:08 10° NNE
Cosmos 2082 Rocket 2.9 19:45:37 12° SSE 19:50:17 35° ESE 19:55:24 10° NE
USA 267 4.1 19:46:01 10° ENE 19:51:21 26° SE 19:56:38 10° S
Cosmos 1867 4.4 19:46:09 10° NNW 19:51:22 42° NE 19:55:51 13° ESE
H-2A R/B 4.3 19:50:49 10° N 19:54:35 28° WNW 19:58:23 10° WSW
USA 276 3.6 19:52:08 10° WNW 19:54:58 35° N 19:57:49 10° ENE
USA 245 3.8 19:52:44 11° S 19:56:35 52° WSW 19:59:55 10° NNW
Cosmos 1536 Rocket 4.2 19:53:14 10° SSW 19:57:29 54° WNW 20:01:46 10° N
Cosmos 1455 4.2 19:55:12 10° NW 19:58:20 25° W 20:01:28 10° SW
Meteor 1-21 Rocket 4.2 19:54:54 10° S 20:00:28 79° E 20:06:12 10° NNE
ARIANE 5 R/B 3.0 19:58:11 20° SE 20:01:05 52° ENE 20:05:24 10° N
Cosmos 1606 Rocket 3.5 19:59:07 10° N 20:03:28 71° E 20:06:16 21° SSE
GP-B 4.4 20:00:26 10° NNE 20:04:12 26° E 20:06:09 19° ESE
ATLAS 5 CENTAUR R/B 4.4 19:58:22 10° NW 20:06:18 24° W 20:09:50 10° SSW
Cosmos 192 4.4 20:04:06 13° S 20:08:22 58° ESE 20:13:11 10° NNE
SPOT 3 Rocket 4.4 20:05:33 10° S 20:10:31 45° W 20:15:31 10° NNW
Cosmos 2327 Rocket 4.5 20:07:39 10° N 20:14:01 86° E 20:18:42 19° S
Nadezhda 1 Rocket 4.1 20:18:55 10° SSW 20:24:59 74° W 20:31:05 10° N
Cosmos 1726 Rocket 3.5 20:21:52 10° N 20:26:12 87° W 20:28:35 26° S
USA 234 4.3 20:20:14 10° E 20:26:21 43° NNE 20:32:28 10° NW
Cosmos 1892 3.0 20:27:17 32° SE 20:28:30 45° E 20:32:08 10° NNE
Meteor 2-1 Rocket 4.5 20:25:55 10° NNW 20:31:22 63° W 20:35:17 19° S
SL-16 R/B 3.6 20:30:34 10° N 20:35:32 30° NE 20:39:33 14° ESE
Cosmos 1980 Rocket 2.2 20:30:10 10° NNW 20:35:54 88° WSW 20:39:07 27° SSE
Cosmos 1697 Rocket 3.4 20:30:40 10° NW 20:36:01 46° WSW 20:39:32 20° S
Cosmos 1992 Rocket 4.5 20:35:13 27° SSE 20:37:25 42° ESE 20:42:20 10° NE
Cosmos 1633 4.5 20:38:23 15° E 20:38:23 15° E 20:40:29 10° NE
Cosmos 2344 4.4 20:30:07 10° NW 20:39:12 80° SW 20:48:13 22° SSE
Cosmos 2369 3.8 20:33:36 10° NNW 20:39:21 75° WSW 20:42:35 27° SSE
SL-8 R/B 4.4 20:35:24 10° WNW 20:39:49 37° SW 20:41:22 29° S
COSMOS 2406 3.6 20:38:23 10° SW 20:44:08 68° WNW 20:49:53 10° NNE
TIMED 4.4 20:45:10 26° SSW 20:47:32 81° ESE 20:51:55 10° NNE
X-37B 2.1 20:45:34 10° W 20:47:01 21° WSW 20:47:01 21° WSW
ATLAS 5 CENTAUR R/B 1.4 20:48:00 42° SSE 20:48:33 46° ESE 20:52:26 10° NE
In-Cosmos 22 Rocket 4.2 20:48:38 28° S 20:51:31 65° E 20:56:55 10° NNE
SPOT 5 4.4 20:49:45 12° SW 20:52:48 24° W 20:56:18 10° NW
Cosmos 1602 Rocket 4.4 20:55:04 29° ESE 20:55:57 32° E 20:59:50 10° NNE
Meteor 1-27 4.2 20:52:04 10° N 20:57:38 71° ENE 21:00:16 32° SSE
Cosmos 1869 3.5 20:54:52 10° N 20:58:43 57° E 20:59:42 43° SE
Cosmos 2084 Rocket 4.2 20:55:29 10° NW 20:59:05 35° WSW 21:00:03 30° SSW
Terra 3.1 20:56:27 17° SSW 20:59:23 32° W 21:03:41 10° NNW
Cosmos 1833 Rocket 4.4 20:55:36 10° WSW 21:00:37 33° NW 21:05:41 10° NNE
ADEOS Rocket 4.2 20:58:46 20° SE 21:03:31 44° ENE 21:10:44 10° N
ASTEX 1 3.5 20:58:42 10° N 21:03:43 78° W 21:06:20 29° SSW
ALOS 2 4.0 21:02:25 22° ESE 21:04:06 28° ENE 21:07:52 10° N
SL-8 Rocket 4.0 20:58:47 10° N 21:05:02 82° W 21:08:23 29° S
FALCON 9 DEB 3.3 21:05:51 10° NW 21:09:06 64° NNE 21:09:45 48° E
Cosmos 2322 Rocket 3.2 21:05:55 10° NNW 21:11:14 39° NE 21:14:36 20° ESE
Cosmos 2058 Rocket 3.8 21:09:15 10° NNW 21:13:31 47° W 21:15:19 30° SSW
Cosmos 1825 2.0 21:15:03 53° SSW 21:15:52 85° W 21:19:38 10° N
Cosmos 1503 Rocket 4.3 21:10:48 10° NNW 21:16:03 57° ENE 21:18:16 32° SE
Cosmos 1408 3.9 21:16:14 22° WSW 21:17:41 32° WNW 21:20:50 10° N
Cosmos 1626 Rocket 3.4 21:17:39 45° S 21:18:58 87° E 21:23:21 10° N
Cosmos 2278 3.8 21:16:23 10° NNW 21:22:04 66° WSW 21:24:23 36° S
Cosmos 2366 rocket 4.1 21:17:46 10° NNW 21:24:05 71° W 21:27:19 31° S
Cosmos 2333 Rocket 4.1 21:21:20 10° N 21:25:57 24° NE 21:30:31 10° E
Gbstr 26 Del rocket 4.4 21:28:42 25° ESE 21:28:42 25° ESE 21:31:30 10° ENE
Cosmos 2218 Rocket 4.2 21:21:12 10° NNW 21:27:34 67° W 21:30:50 30° SSW
USA 276 2.3 21:28:01 10° WNW 21:31:00 62° NNE 21:31:00 62° NNE
Cosmos 1825 Rocket 4.4 21:31:12 32° ESE 21:31:46 33° E 21:35:41 10° NNE
Meteor 2-20 4.5 21:29:48 36° SSE 21:32:20 66° E 21:38:22 10° NNE
SJ 16-02 1.9 21:29:46 10° N 21:34:05 49° ENE 21:35:23 37° ESE
Cosmos 2082 Rocket 3.4 21:28:55 10° SW 21:34:17 41° NW 21:39:40 10° NNE
Cosmos 1867 4.4 21:29:55 10° NW 21:34:55 37° WSW 21:36:30 31° SSW
USA 267 3.2 21:28:20 10° NE 21:34:55 86° SE 21:41:29 10° SW
BREEZE-M DEB (TANK) 3.9 21:22:31 10° WSW 21:35:26 88° NNW 21:39:08 10° ENE
Cosmos 1340 Rocket 4.3 21:37:32 23° E 21:37:36 23° E 21:40:47 10° NE
H-2A R/B 3.5 21:39:44 10° NNE 21:43:55 63° E 21:44:31 55° SE
Cosmos 2360 Rocket 2.9 21:41:45 10° NNW 21:47:15 47° ENE 21:50:15 25° ESE
Spot 4 3.9 21:48:33 45° SSW 21:49:52 66° WSW 21:54:40 10° NNW
Cosmos 2221 4.1 21:46:34 10° NNE 21:50:10 25° ENE 21:51:29 21° E
Cosmos 2058 3.3 21:50:01 46° ESE 21:50:28 48° E 21:54:30 10° NNE
Cosmos 1606 2.6 21:49:11 10° N 21:53:03 72° E 21:53:24 66° SE
Meteor 2-20 Rocket 4.4 21:58:19 39° S 22:00:43 78° E 22:06:50 10° NNE
Cosmos 2237 4.2 21:57:01 10° NNW 22:02:47 88° ENE 22:04:53 41° SSE
Cosmos 44 3.9 22:02:58 35° ESE 22:02:58 35° ESE 22:06:55 10° NE
USA 234 3.2 22:04:42 24° SE 22:09:01 87° SW 22:15:37 10° NW
Cosmos 1758 Rocket 4.0 22:08:36 42° SW 22:09:43 54° WNW 22:14:03 10° N
Cosmos 1633 3.7 22:12:09 31° W 22:12:35 32° WNW 22:15:44 10° N
COSMOS 2428 4.5 22:08:02 10° N 22:12:48 27° NE 22:17:35 10° ESE
Cosmos 1821 Rocket 4.3 22:12:56 10° NNW 22:18:58 55° W 22:21:23 35° SSW
Cosmos 1980 Rocket 4.3 22:16:19 10° WNW 22:19:00 14° W 22:20:52 12° WSW
SL-16 R/B 2.6 22:14:25 10° NW 22:19:53 50° WSW 22:21:23 40° SSW
SL-4 R/B 1.9 22:23:23 58° ENE 22:23:23 58° ENE 22:26:28 10° ENE
Cosmos 2219 Rocket 3.2 22:18:59 10° NNW 22:24:22 41° NE 22:28:08 18° ESE
Cosmos-2242 4.1 22:26:49 10° NNW 22:30:35 32° W 22:31:12 30° WSW
CRYOSAT 2 4.3 22:31:17 50° SSE 22:32:32 80° E 22:37:27 10° N
ATLAS 5 CENTAUR R/B 3.6 22:30:08 10° W 22:33:18 23° NW 22:36:48 10° NNE
Cosmos 1605 Rocket 4.2 22:29:11 10° N 22:35:35 67° E 22:38:25 35° SSE
ERS-2 2.1 22:33:59 10° N 22:37:33 67° WNW 22:37:40 66° W
ALOS 2 3.7 22:39:49 30° WSW 22:40:21 31° W 22:44:16 10° NNW
Meteor 2-11 Rocket 4.4 22:35:04 10° N 22:41:13 84° W 22:43:31 41° S
Cosmos 1076 Rocket 4.0 22:46:53 43° SE 22:47:36 48° E 22:51:49 10° NNE
ADEOS Rocket 4.0 22:45:43 30° SSW 22:48:53 45° W 22:56:15 10° NNW
Cosmos 972 Rocket 4.2 22:47:49 10° NNW 22:53:00 67° WSW 22:54:40 44° S
Cosmos 2322 Rocket 2.9 22:50:05 10° NW 22:55:14 37° WSW 22:56:24 33° SW
USA 290 3.8 22:52:36 10° N 22:55:30 29° ENE 22:56:05 27° E
Cosmos 1933 3.6 22:51:51 10° N 22:55:49 59° E 22:56:26 52° ESE
NOSS 3-2 (A) 4.0 22:54:56 32° SE 22:56:05 35° ESE 23:01:37 10° NE
Cosmos 540 Rocket 4.4 22:55:58 29° SE 22:57:13 34° ESE 23:01:50 10° NE
Cosmos 1953 Rocket 4.2 22:58:43 38° WSW 22:59:44 45° WNW 23:04:00 10° N
SL-27 R/B 2.5 23:00:48 67° NE 23:00:48 67° NE 23:03:43 10° NNE
ISS -2.7 23:01:42 36° E 23:01:42 36° E 23:03:54 10° ENE
PSLV R/B 4.0 22:56:59 10° N 23:01:42 62° WNW 23:03:01 43° SW
Cosmos 2285 Rocket 4.3 23:08:13 35° SSE 23:10:46 56° ESE 23:17:03 10° NNE
Cosmos 2333 Rocket 2.2 23:05:03 10° NNW 23:10:48 71° WSW 23:12:51 40° S
CENTAUR R/B 2.9 23:09:34 35° SSE 23:11:22 44° ESE 23:17:46 10° NE
SJ 16-02 3.2 23:09:18 10° NW 23:12:14 17° W 23:12:19 17° W
COSMOS 2487 2.5 23:14:00 60° NNW 23:14:00 60° NNW 23:16:40 10° NNE
Gbstr 26 Del rocket 3.5 23:11:09 24° WSW 23:13:51 70° NNW 23:19:18 10° ENE
Cosmos 1340 Rocket 4.2 23:13:04 25° W 23:13:52 28° WNW 23:17:19 10° N
Cosmos 2151 3.0 23:14:58 56° SSE 23:15:48 75° E 23:20:06 10° NNE
USA 267 4.3 23:11:30 10° NE 23:17:37 44° NNW 23:23:43 10° W
Cosmos 1898 Rocket 3.7 23:12:40 10° NNW 23:17:50 66° ENE 23:20:27 29° SE
Meteor 2-3 Rocket 3.7 23:20:57 40° SSW 23:23:01 78° W 23:28:38 10° N
Cosmos 1812 2.6 23:22:21 10° N 23:26:11 81° E 23:26:44 63° SSE
Cosmos 1937 Rocket 4.0 23:21:02 10° NNW 23:26:14 57° ENE 23:29:31 22° SE
Cosmos 2221 3.5 23:23:49 10° NNW 23:27:43 33° W 23:28:17 31° WSW
Cosmos 1153 Rocket 4.5 23:24:01 10° N 23:30:24 79° W 23:33:16 35° S
Cosmos 1842 Rocket 4.2 23:26:16 10° NNW 23:30:30 41° W 23:31:14 38° WSW
Cosmos 2360 Rocket 3.2 23:26:10 10° NW 23:31:01 30° WSW 23:32:00 28° WSW
Cosmos 2227 Rocket 4.1 23:29:43 13° SE 23:32:33 18° E 23:36:17 10° ENE
Cosmos 1862 3.8 23:34:11 41° SE 23:35:02 50° E 23:38:51 10° NNE
Resurs 1-4 Rocket 3.1 23:30:32 10° NNE 23:35:31 38° E 23:38:01 24° SSE
Cosmos 1782 2.9 23:32:50 10° NNW 23:36:45 57° W 23:37:13 53° SW
NOSS 3-2 (C) 3.9 23:41:34 30° SSE 23:43:35 42° ESE 23:49:22 10° NE
Cosmos 44 4.4 23:41:21 19° W 23:44:00 34° NW 23:48:05 10° NNE
CZ-2D R/B 2.8 23:39:11 10° NNE 23:44:08 43° E 23:46:39 26° SSE
COSMOS 2455 3.7 23:39:55 10° NNW 23:45:46 50° NE 23:51:36 10° SE
USA 234 4.1 23:52:01 26° SW 23:52:35 27° SW 23:57:58 10° WNW
